Voltar ao catálogo

THORAD AGENA D DEB

AtivoSSO
NORAD 4757·DEBRIS·🇺🇸 United States

Lançado Apr 8, 1970 de Vandenberg Space Force Base

Loading…

Próximas Passagens

TLE

Source: Space-Track
1 04757U 70025DF  26229.08688316  .00000216  00000-0  32392-3 0  9999
2 04757  99.3801  98.3943 0012084 292.9180  67.0688 13.64166374789074

Acompanhe THORAD AGENA D DEB em tempo real com AllMySat

Download on the App Store